Location: Angola by the Bay
(38.6709°N, 75.1746°W)
Time: 19:20:45
(UTC+00:00)

DIWATA 2B (PO-101) - Visible Passes

Search period start: 05 December 2024 00:00
Search period end: 15 December 2024 00:00
Orbit: 571 x 583 km, 98.1° (Epoch: 05 December)

Date Brightness Start Highest point End Pass type
(mag) Time Alt. Az. Time Alt. Az. Time Alt. Az.
05 Dec ? 22:21:08 10° N 22:25:04 48° WNW 22:28:58 10° SSW visible
06 Dec ? 22:25:07 10° N 22:28:59 43° WNW 22:32:50 10° SW visible
07 Dec ? 22:29:05 10° N 22:32:53 39° WNW 22:36:40 10° SW visible
08 Dec ? 22:33:04 10° N 22:36:47 35° WNW 22:40:30 10° SW visible
09 Dec ? 22:37:03 10° N 22:40:41 32° WNW 22:44:18 10° SW visible
10 Dec ? 22:41:02 10° N 22:44:34 29° WNW 22:48:05 10° SW visible
11 Dec ? 22:45:01 10° NNW 22:48:26 26° WNW 22:51:50 10° SW visible
12 Dec ? 22:49:00 10° NNW 22:52:18 24° WNW 22:55:35 10° WSW visible
13 Dec ? 22:53:00 10° NNW 22:56:10 22° WNW 22:59:19 10° WSW visible
14 Dec ? 22:57:00 10° NNW 23:00:01 20° WNW 23:03:01 10° WSW visible
